THORAD AGENA D DEB, 5151

Orbit data source: Space-Track

THORAD AGENA D DEB, 5151 is space debris in SSO originally from a launch on Wed, 08 Apr 1970 UTC launched from the Air Force Western Test Range (AFWTR). Debris objects in space refer to the collection of defunct objects orbiting the Earth. Examples of debris include non-operational satellites, rocket bodies, and fragments generated from explosions, collisions, or faulty payload assembly.

Loading next visibility...
Identifier
5151, 1970-025JU
Orbit
SSO
Country
Flag of USUS
Related business
Manufacturer
Unknown
Mission
Spacecraft
Bus & Motor
Unknown
Mass
Unknown
Launch date (UTC)
1970-04-08 (56 years ago)
Launch vehicle
Unknown
Launch site
Air Force Western Test Range (AFWTR)
Object type
Payload
Rocket body
Debris
Shape & HBR
Unknown shape, 0.1 m
Radar Cross Section
Medium (>0.1 m² and <1 m²)

Expand to show TLE details & history
Last TLE update: 1 day ago

TLE from 1 day ago
0 THORAD AGENA D DEB
1 05151U 70025JU  26166.44495433  .00000403  00000-0  55390-3 0  9995
2 05151 100.0745  37.1112 0001403 136.6142 348.6668 13.65389480283547
Epoch: 2026-06-15T10:40Z
TLE epoch observation values (Epoch: 2026-06-15T10:40:44.054Z)
Latitude
53.59104°
Longitude
167.06281°
Altitude
1,023.834 km
Speed
7.345 km/s
True Right ascension
15h 23m 54s
True Declination
53° 25' 57"
Sunlit
Object was in daylight at epoch
Visualization orbit readout
Latitude
Unknown
Longitude
Unknown
Altitude
Unknown
Speed
Unknown
Apparent Right ascension
Unknown
Apparent Declination
Unknown
Sunlit
N/A
Visualization observer readout
Local Sidereal Time
21:15:43
Azimuth
Unknown
Elevation
Unknown
Doppler factor
Unknown
Orbital elements
Apogee altitude
1,014.508 km
Perigee altitude
1,012.433 km
Semi-major axis
7,391.608 km
Eccentricity
0.00014
Inclination
100.0745°
RAAN
37.1112°
Arg. of periapsis
136.6142°
True anomaly
348.66364°
Mean anomaly
348.6668°
Eccentric anomaly
348.66522°
Mean motion
3.41535 °/min
Orbital period
105.41 mins
BSTAR
0.0005539

Documentation

Showing up to 5 results
|